Flag Weather past 2 weeks in Vieux Fort, Saint Lucia

Now
81 °F

Partly sunny.


Feels Like: 87 °F
Forecast: 79 / 85 °F
Wind: 20 mph from East

Location: Hewanorra International Airport

Current Time: Nov 22, 2014 at 7:45:35 AM

Latest Report: Nov 22, 2014 at 7:00 AM


Visibility: N/A

Pressure: 29.95 "Hg

Humidity: 89%

Dew point: 77 °F

Location of Vieux FortLocation

Historic Weather in Vieux Fort — Graph

°F

Vieux Fort temperature yesterday

Maximum temperature yesterday: 84 °F (at 1:00 PM)
Minimum temperature yesterday: 75 °F (at 4:00 AM)
Average temperature yesterday: 80 °F

Past Weeks' High & Low Weather Summary

 TemperatureHumidityPressure
High88 °F (Nov 7, 12:00 PM)100% (Nov 8, 2:00 AM)30.01 "Hg (Nov 8, 2:00 AM)
Low73 °F (Nov 8, 7:00 AM)62% (Nov 19, 12:00 PM)29.80 "Hg (Nov 11, 4:00 PM)
Average82 °F80%29.91 "Hg
* Reported Nov 7 6:00 AM — Nov 22 6:00 AM, Vieux Fort, Weather by CustomWeather, © 2014

Note: Actual official high and low records may vary slightly from our data, if they occured in-between our weather recording intervals... More about our weather records

Advertising

Vieux Fort weather history for previous 24 hours

 ConditionsComfort  
Time TempWeatherWind HumidityBarometerVisibility
6:00 AM
Nov 22
81 °FPassing clouds.17 mph84%29.92 "HgN/A
5:00 AM82 °FPassing clouds.18 mph79%29.89 "HgN/A
4:00 AM82 °FPassing clouds.18 mph79%29.89 "HgN/A
3:00 AM81 °FSprinkles. Passing clouds.21 mph84%29.89 "HgN/A
2:00 AM82 °FPassing clouds.23 mph79%29.89 "HgN/A
1:00 AM82 °FPassing clouds.18 mph79%29.92 "HgN/A
12:00 AM82 °FPassing clouds.18 mph79%29.92 "HgN/A
11:00 PM
Nov 21
82 °FPartly cloudy.16 mph79%29.95 "HgN/A
10:00 PM81 °FPassing clouds.17 mph84%29.95 "HgN/A
9:00 PM81 °FPassing clouds.18 mph84%29.92 "HgN/A
8:00 PM81 °FPassing clouds.16 mph89%29.92 "HgN/A
7:00 PM79 °FSprinkles. Partly cloudy.15 mph94%29.89 "HgN/A
6:00 PM81 °FPassing clouds.20 mph84%29.89 "HgN/A
5:00 PM81 °FBroken clouds.15 mph84%29.89 "HgN/A
4:00 PM82 °FScattered clouds.17 mph79%29.89 "HgN/A
3:00 PM82 °FPartly sunny.18 mph79%29.89 "HgN/A
2:00 PM84 °FPartly sunny.23 mph70%29.92 "HgN/A
1:00 PM84 °FPartly sunny.23 mph74%29.92 "HgN/A
12:00 PM81 °FBroken clouds.21 mph79%29.95 "HgN/A
11:00 AM81 °FPartly sunny.23 mph79%29.98 "HgN/A
10:00 AM81 °FWarm.No wind79%29.98 "HgN/A
9:00 AM79 °FPartly sunny.21 mph84%29.98 "HgN/A
8:00 AM77 °FLight rain. Broken clouds.21 mph89%29.98 "HgN/A
7:00 AM79 °FLight rain. Broken clouds.29 mph84%29.95 "HgN/A
Weather by CustomWeather, © 2014

See weather overviewHow to use our weather pages